Location: Aufkirchen
(47.9603°N, 11.3653°E)
Time: 11:48:48
(UTC+01:00)

Tiros 1 - Pass Details

Date: 03 December 2020
Orbit: 630 x 663 km, 48.4° (Epoch: 21 January)

Event Time Altitude Azimuth Distance (km) Brightness Sun altitude
Rises 12:49:52 0° 197° (SSW) 2,977 12.2 19.1°
Reaches altitude 10° 12:52:55 10° 178° (S) 2,071 11.6 19.0°
Maximum altitude 12:55:59 17° 138° (SE) 1,653 9.9 18.9°
Drops below altitude 10° 12:59:04 10° 97° (E) 2,079 9.8 18.8°
Sets 13:02:06 0° 78° (ENE) 2,993 10.3 18.7°
